Fremont, MI

6:23 PM EST on November 12, 2019 (GMT -0500)
Fremont

Weather History for KFFX - September, 2019

Change the Weather History Date:

Tuesday, September 3, 2019

  Actual Average (KMKG) Record (KMKG)
Temperature  
Mean Temperature 68 °F -  
Max Temperature 73 °F 76 °F 94 °F (1953)
Min Temperature 62 °F 56 °F 34 °F (1946)
Cooling Degree Days 2    
Growing Degree Days 18 (Base 50)    
Moisture  
Dew Point 62 °F    
Average Humidity 82    
Maximum Humidity 92    
Minimum Humidity 61    
Precipitation  
Precipitation 0.00 in - - ()
Sea Level Pressure  
Sea Level Pressure 29.86 in    
Wind  
Wind Speed 7 mph ()    
Max Wind Speed 23 mph    
Max Gust Speed 32 mph    
Visibility 10.0 miles    
Events Rain    
Averages and records for this station are not official NWS values.
T = Trace of Precipitation, MM = Missing Value Source: Averaged Metar Reports

Daily Weather History Graph

Daily Weather History Graph

Search for Another Location

Airport or City:

Astronomy

Sep. 03, 2019 Rise Set
Actual Time 7:09 AM EDT 8:16 PM EDT
Civil Twilight 6:40 AM EDT 8:45 PM EDT
Nautical Twilight 6:05 AM EDT 9:20 PM EDT
Astronomical Twilight 5:28 AM EDT 9:56 PM EDT
Moon 12:10 PM EDT (9/3) 11:03 PM EDT (9/3)
Length of Visible Light 14h 04m
Length of Day
13h 06m
Waxing Crescent, 24% of the Moon is Illuminated
Sep 3
Waxing Crescent
Sep 5
First Quarter
Sep 14
Full
Sep 21
Last Quarter
Sep 28
New

Hourly Weather History & Observations

Time (EDT) Temp. Dew Point Humidity Pressure Visibility Wind Dir Wind Speed Gust Speed Precip Events Conditions
12:15 AM 62.6 °F 58.3 °F 86% 30.05 in 10.0 mi Calm Calm - N/A   Mostly Cloudy
12:16 AM 62.6 °F 58.3 °F 86% 30.05 in 10.0 mi Calm Calm - N/A   Mostly Cloudy
12:35 AM 62.6 °F 58.3 °F 86% 30.04 in 10.0 mi East 3.5 mph - N/A   Mostly Cloudy
12:40 AM 62.8 °F 58.5 °F 86% 30.04 in 10.0 mi East 3.5 mph - N/A   Mostly Cloudy
12:58 AM 62.6 °F 58.6 °F 87% 30.04 in 10.0 mi East 6.9 mph - N/A   Mostly Cloudy
1:16 AM 62.8 °F 57.6 °F 83% 30.03 in 10.0 mi East 4.6 mph - N/A   Mostly Cloudy
1:35 AM 63.0 °F 56.7 °F 80% 30.03 in 10.0 mi ESE 5.8 mph - N/A   Mostly Cloudy
1:36 AM 63.0 °F 56.7 °F 80% 30.03 in 10.0 mi ESE 6.9 mph - N/A   Mostly Cloudy
1:55 AM 62.8 °F 53.8 °F 72% 30.03 in 10.0 mi East 5.8 mph - N/A   Overcast
2:19 AM 63.0 °F 52.9 °F 70% 30.02 in 10.0 mi East 6.9 mph - N/A   Overcast
2:37 AM 63.0 °F 52.5 °F 69% 30.01 in 10.0 mi ESE 5.8 mph - N/A   Overcast
2:55 AM 62.6 °F 53.1 °F 71% 30.00 in 10.0 mi East 4.6 mph - N/A   Overcast
2:56 AM 62.6 °F 53.1 °F 71% 30.00 in 10.0 mi ESE 4.6 mph - N/A   Overcast
3:15 AM 62.8 °F 53.1 °F 71% 30.00 in 10.0 mi ESE 4.6 mph - N/A   Overcast
3:35 AM 62.6 °F 53.8 °F 73% 29.99 in 10.0 mi ESE 4.6 mph - N/A   Overcast
3:58 AM 62.6 °F 55.8 °F 78% 29.99 in 10.0 mi ESE 3.5 mph - N/A   Overcast
4:16 AM 62.6 °F 55.9 °F 79% 29.97 in 10.0 mi SE 6.9 mph - N/A   Overcast
4:35 AM 62.6 °F 56.7 °F 81% 29.98 in 10.0 mi SE 5.8 mph - N/A   Overcast
4:36 AM 62.6 °F 56.7 °F 81% 29.98 in 10.0 mi SE 5.8 mph - N/A   Overcast
4:55 AM 63.0 °F 57.2 °F 81% 29.98 in 10.0 mi SSE 5.8 mph - N/A   Overcast
5:19 AM 63.1 °F 57.6 °F 82% 29.98 in 10.0 mi South 3.5 mph - N/A   Overcast
5:37 AM 62.6 °F 58.5 °F 86% 29.98 in 10.0 mi SSE 4.6 mph - N/A   Mostly Cloudy
5:55 AM 62.8 °F 59.0 °F 87% 29.97 in 10.0 mi SSE 4.6 mph - N/A   Mostly Cloudy
5:56 AM 62.8 °F 59.0 °F 87% 29.96 in 10.0 mi South 4.6 mph - N/A   Mostly Cloudy
6:15 AM 63.3 °F 59.5 °F 87% 29.95 in 10.0 mi South 5.8 mph - N/A   Mostly Cloudy
6:35 AM 63.7 °F 60.1 °F 88% 29.94 in 10.0 mi South 6.9 mph - N/A   Scattered Clouds
6:57 AM 64.8 °F 61.7 °F 90% 29.92 in 10.0 mi South 9.2 mph - N/A   Clear
7:16 AM 65.7 °F 62.8 °F 90% 29.91 in 10.0 mi South 10.4 mph - N/A   Light Drizzle
7:35 AM 66.4 °F 63.1 °F 89% 29.89 in 10.0 mi South 8.1 mph - N/A   Scattered Clouds
7:36 AM 66.6 °F 63.3 °F 89% 29.89 in 10.0 mi South 8.1 mph - N/A   Scattered Clouds
7:55 AM 66.6 °F 63.5 °F 90% 29.88 in 10.0 mi SSE 4.6 mph - N/A   Clear
7:56 AM 66.6 °F 63.5 °F 90% 29.89 in 10.0 mi SSE 5.8 mph - N/A   Scattered Clouds
8:19 AM 67.1 °F 64.0 °F 90% 29.88 in 10.0 mi SSW 5.8 mph - N/A Rain Light Rain
8:37 AM 68.2 °F 64.6 °F 88% 29.89 in 10.0 mi SW 9.2 mph - N/A Rain Light Rain
8:55 AM 68.7 °F 64.8 °F 87% 29.88 in 10.0 mi SW 10.4 mph - N/A   Scattered Clouds
9:15 AM 68.9 °F 64.9 °F 87% 29.83 in 10.0 mi South 10.4 mph 19.6 mph N/A   Light Drizzle
9:16 AM 68.9 °F 64.9 °F 87% 29.83 in 10.0 mi South 10.4 mph 19.6 mph N/A   Light Drizzle
9:35 AM 68.9 °F 65.1 °F 88% 29.82 in 10.0 mi SSW 12.7 mph 18.4 mph N/A Rain Light Rain
9:58 AM 69.8 °F 64.6 °F 83% 29.86 in 10.0 mi SW 10.4 mph - N/A   Mostly Cloudy
10:16 AM 70.2 °F 64.2 °F 81% 29.84 in 10.0 mi SSW 13.8 mph 19.6 mph N/A   Mostly Cloudy
10:35 AM 70.3 °F 61.7 °F 74% 29.85 in 10.0 mi SW 15.0 mph 20.7 mph N/A   Clear
10:36 AM 70.2 °F 61.7 °F 74% 29.85 in 10.0 mi SW 13.8 mph 20.7 mph N/A   Clear
10:55 AM 68.9 °F 63.7 °F 83% 29.84 in 10.0 mi SSW 19.6 mph 32.2 mph N/A Rain Rain
11:19 AM 68.9 °F 65.3 °F 88% 29.83 in 10.0 mi SSW 18.4 mph 26.5 mph N/A Rain Light Rain
11:37 AM 68.9 °F 64.6 °F 86% 29.85 in 10.0 mi SW 12.7 mph 20.7 mph N/A Rain Light Rain
11:55 AM 68.5 °F 64.6 °F 87% 29.86 in 7.0 mi SSW 8.1 mph 18.4 mph N/A Rain Rain
12:15 PM 69.1 °F 65.5 °F 88% 29.87 in 10.0 mi East 4.6 mph - N/A Rain Light Rain
12:16 PM 69.1 °F 65.3 °F 88% 29.87 in 10.0 mi East 4.6 mph - N/A Rain Light Rain
12:35 PM 68.5 °F 65.7 °F 90% 29.84 in 10.0 mi South 6.9 mph - N/A   Overcast
12:40 PM 68.5 °F 65.7 °F 90% 29.84 in 10.0 mi South 5.8 mph - N/A Rain Light Rain
12:58 PM 70.2 °F 65.8 °F 86% 29.83 in 10.0 mi SSW 11.5 mph 17.3 mph N/A   Overcast
1:16 PM 71.6 °F 63.1 °F 75% 29.82 in 10.0 mi SSW 15.0 mph 20.7 mph N/A   Overcast
1:35 PM 72.1 °F 61.5 °F 69% 29.79 in 10.0 mi South 11.5 mph 21.9 mph N/A   Overcast
1:36 PM 72.3 °F 61.3 °F 68% 29.79 in 10.0 mi South 12.7 mph 21.9 mph N/A   Overcast
1:55 PM 72.5 °F 60.8 °F 67% 29.78 in 10.0 mi South 15.0 mph 21.9 mph N/A   Overcast
2:19 PM 73.0 °F 59.2 °F 62% 29.76 in 10.0 mi SW 13.8 mph 27.6 mph N/A   Overcast
2:37 PM 72.7 °F 58.6 °F 61% 29.77 in 10.0 mi SW 17.3 mph 25.3 mph N/A   Overcast
2:55 PM 72.3 °F 58.3 °F 61% 29.77 in 10.0 mi SW 20.7 mph 27.6 mph N/A   Overcast
3:15 PM 72.5 °F 59.2 °F 63% 29.78 in 10.0 mi SW 19.6 mph 29.9 mph N/A   Overcast
3:35 PM 71.6 °F 60.3 °F 67% 29.79 in 10.0 mi SW 23.0 mph 32.2 mph N/A   Overcast
3:40 PM 71.6 °F 60.6 °F 68% 29.79 in 10.0 mi WSW 21.9 mph 28.8 mph N/A   Overcast
3:58 PM 71.6 °F 62.1 °F 72% 29.78 in 10.0 mi SW 20.7 mph 29.9 mph N/A   Overcast
4:16 PM 71.2 °F 64.8 °F 80% 29.76 in 10.0 mi SW 19.6 mph 27.6 mph N/A   Overcast
4:35 PM 71.8 °F 65.1 °F 79% 29.76 in 10.0 mi SW 18.4 mph 23.0 mph N/A   Overcast
4:55 PM 72.5 °F 65.1 °F 78% 29.75 in 10.0 mi SW 19.6 mph 29.9 mph N/A   Overcast
5:19 PM 72.5 °F 66.2 °F 81% 29.75 in 10.0 mi SW 15.0 mph 25.3 mph N/A   Overcast
5:37 PM 72.1 °F 66.7 °F 83% 29.74 in 10.0 mi SW 15.0 mph 21.9 mph N/A   Overcast
5:55 PM 72.1 °F 67.1 °F 84% 29.74 in 10.0 mi WSW 13.8 mph 23.0 mph N/A   Overcast
5:56 PM 72.1 °F 67.1 °F 84% 29.74 in 10.0 mi WSW 12.7 mph 23.0 mph N/A   Overcast
6:15 PM 72.5 °F 67.1 °F 83% 29.73 in 10.0 mi SW 16.1 mph 25.3 mph N/A   Overcast
6:35 PM 72.7 °F 67.5 °F 84% 29.73 in 10.0 mi WSW 11.5 mph 19.6 mph N/A   Overcast
6:58 PM 72.7 °F 67.8 °F 85% 29.74 in 10.0 mi WSW 15.0 mph 21.9 mph N/A   Overcast
7:16 PM 72.5 °F 68.0 °F 86% 29.74 in 10.0 mi SW 12.7 mph 19.6 mph N/A   Overcast
7:35 PM 72.3 °F 68.0 °F 86% 29.75 in 10.0 mi WSW 10.4 mph 16.1 mph N/A   Overcast
7:55 PM 72.1 °F 68.2 °F 87% 29.75 in 10.0 mi WSW 8.1 mph - N/A   Overcast
8:19 PM 72.1 °F 68.4 °F 88% 29.75 in 10.0 mi WSW 8.1 mph - N/A   Overcast
8:37 PM 72.0 °F 68.5 °F 89% 29.75 in 10.0 mi WSW 11.5 mph - N/A   Overcast
8:55 PM 71.8 °F 68.5 °F 89% 29.77 in 10.0 mi West 6.9 mph - N/A   Overcast
9:15 PM 71.2 °F 67.8 °F 89% 29.77 in 10.0 mi West 5.8 mph - N/A   Overcast
9:16 PM 71.1 °F 67.8 °F 89% 29.77 in 10.0 mi West 5.8 mph - N/A   Overcast
9:35 PM 70.9 °F 65.8 °F 84% 29.78 in 10.0 mi West 9.2 mph - N/A   Mostly Cloudy
9:40 PM 70.7 °F 65.7 °F 84% 29.78 in 10.0 mi West 6.9 mph - N/A   Mostly Cloudy
9:58 PM 69.3 °F 65.3 °F 87% 29.78 in 10.0 mi WNW 5.8 mph - N/A   Scattered Clouds
10:16 PM 67.6 °F 64.9 °F 91% 29.79 in 10.0 mi WNW 4.6 mph - N/A   Scattered Clouds
10:35 PM 66.7 °F 64.4 °F 92% 29.79 in 10.0 mi West 3.5 mph - N/A   Clear
10:36 PM 66.9 °F 64.4 °F 92% 29.79 in 10.0 mi West 3.5 mph - N/A   Clear
10:55 PM 67.1 °F 64.2 °F 90% 29.80 in 10.0 mi West 4.6 mph - N/A   Clear
11:37 PM 66.6 °F 61.9 °F 85% 29.81 in 10.0 mi West 5.8 mph - N/A   Scattered Clouds
11:55 PM 65.7 °F 61.0 °F 85% 29.82 in 10.0 mi WNW 6.9 mph - N/A   Scattered Clouds
11:56 PM 65.7 °F 61.0 °F 85% 29.82 in 10.0 mi WNW 6.9 mph - N/A   Scattered Clouds